Regional Weather Roundup
Issued by NWS Upton, NY

Current Version | Previous Version | Text Only | Print | Product List | Glossary On
Versions: 1 2 3 4 5 6 7 8 9 10 11 12 13 14 15 16 17 18 19 20 21 22 23 24 25 26 27
000
ASUS41 KOKX 221209
RWROKX

REGIONAL WEATHER ROUNDUP
NATIONAL WEATHER SERVICE NEW YORK NY
800 AM EDT SAT JUL 22 2017

NOTE: "FAIR" INDICATES FEW OR NO CLOUDS BELOW 12,000 FEET WITH NO
SIGNIFICANT WEATHER AND/OR OBSTRUCTIONS TO VISIBILITY.

NYZ071-072-176-178-NJZ106-104-221300-
NEW YORK CITY METRO AREA

CITY           SKY/WX    TMP DP  RH WIND       PRES   REMARKS
Central Park   SUNNY     79  64  60 VRB3      29.92R
Bronx Bot Gard   N/A     81  64  57 N3        29.91R
LaGuardia APRT PTSUNNY   81  70  69 NE7       29.88R
Kennedy INTL   PTSUNNY   83  69  62 N7        29.88S
Breezy Point     N/A     79 N/A N/A E3          N/A
Newark/Liberty MOSUNNY   82  59  45 N10       29.88R
Teterboro      SUNNY     80  62  54 N8        29.88R
$$

NYZ177-179-078>081-221300-
LONG ISLAND NEW YORK

CITY           SKY/WX    TMP DP  RH WIND       PRES   REMARKS
Jones Beach      N/A     77 N/A N/A NE7         N/A
Matinecock PT    N/A     77 N/A N/A NE3         N/A
Farmingdale    SUNNY     79  65  62 NE9       29.89R
MacArthur/ISP  MOSUNNY   80  63  55 N10       29.88R
Shirley        SUNNY     80  69  69 N6        29.89R
Mt Sinai Harb    N/A     77 N/A N/A NW1         N/A
Westhampton    SUNNY    N/A N/A N/A SW3       29.90S
East Hampton   FAIR      74  66  75 N5        29.88S
Montauk          N/A     75  66  73 CALM      29.89S
$$

NYZ052-065-067-221300-
HUDSON VALLEY

CITY           SKY/WX    TMP DP  RH WIND       PRES   REMARKS
White Plains   SUNNY     77  66  69 CALM      29.91
Larchmont Harb   N/A     75 N/A N/A N3          N/A
Croton O-T Hud   N/A     77 N/A N/A NE2         N/A
Newburgh       PTSUNNY   70  66  88 CALM      29.93R
Montgomery     CLOUDY    71  61  70 CALM      29.91R
Poughkeepsie   CLOUDY    69  65  86 CALM      29.90R
Albany         CLOUDY    69  62  78 S5        29.91R
$$

NJZ001-105-106-008-010-013-015-019>022-104-221300-
NEW JERSEY

CITY           SKY/WX    TMP DP  RH WIND       PRES   REMARKS
Newark/Liberty MOSUNNY   82  59  45 N10       29.88R
Teterboro      SUNNY     80  62  54 N8        29.88R
Caldwell       SUNNY     77  60  55 NW3       29.91R
Somerville     SUNNY     76  71  85 N3        29.88R
Linden         FAIR      80  62  54 CALM      29.89R
Perth Amboy      N/A     81 N/A N/A N6          N/A
Sussex         SUNNY     70  67  90 CALM      29.92R
Andover          N/A     72  68  87 CALM      29.93R
Trenton        CLOUDY    80  70  71 E5        29.88S
Millville      CLOUDY    77  77 100 E3        29.88R
Atlantic City  CLOUDY    79  75  87 CALM      29.88R
Wrightstown    CLOUDY    79  71  76 NE5       29.86S
Toms River     CLOUDY    80  74  81 N5        29.89S HAZE
Belmar         SUNNY     80  71  74 NE3       29.89S
$$

PAZ047>061-062-071-221300-
EASTERN PENNSYLVANIA

CITY           SKY/WX    TMP DP  RH WIND       PRES   REMARKS
Philadelphia   PTSUNNY   82  70  66 NE7       29.88R
Allentown      SUNNY     77  68  73 NE5       29.91R
Scranton       MOSUNNY   69  66  90 CALM      29.95R
$$

CTZ002-004>006-009-010-012-RIZ004-006-007-MAZ004-011-015-221300-
SOUTHERN NEW ENGLAND
 IN CT

CITY           SKY/WX    TMP DP  RH WIND       PRES   REMARKS
Bradley INTL   CLOUDY    71  62  73 S3        29.89R
Hartford       MOSUNNY   74  63  68 SE3       29.88S
Danbury        SUNNY     72  64  76 CALM      29.92R
Wtrbury/Oxford MOSUNNY   72  57  60 NW3       29.91R
Bridgeport     SUNNY     78  61  55 N6        29.88S
Meriden        SUNNY     75  62  64 CALM      29.89R
New Haven      SUNNY     76  62  62 N5        29.89R
Chester        FAIR      75  61  60 CALM      29.90S
Groton         SUNNY     75  61  61 N8        29.88S
Wilimantic     MOSUNNY   71  64  78 CALM      29.90R

 IN RI

CITY           SKY/WX    TMP DP  RH WIND       PRES   REMARKS
Providence     PTSUNNY   76  65  68 CALM      29.88R
Block Island   SUNNY     74  65  73 NW5       29.89R
Westerly       SUNNY     77  65  66 N5        29.89R
 IN MA

CITY           SKY/WX    TMP DP  RH WIND       PRES   REMARKS
Boston         CLOUDY    76  59  55 NW8       29.87R
Worcester      PTSUNNY   69  58  67 W6        29.92R
Westfield      CLOUDY    68  63  84 CALM      29.89R
Provincetown   MOSUNNY   71  64  78 NW5       29.87R
Nantucket      SUNNY     77  67  71 W7        29.87R
$$

ANZ330-335-338-340-345-350-353-355-221300-
COASTAL MARINE OBSERVATIONS


STATION/POSITION TIME  SKY/WX   TEMP    WIND        PRES    VSBY  WAVE
                                AIR SEA DIR/SP/G                  HT/PER
                 (UTC)          (F)     (DEG/KT/KT) (MB)    (MI)  (FT/S)
NY HARB ENTRANCE 1050            77 75  360/  4/  6 1011.1          2/11
20 S FIRE ISLAND 1150            77 76   30/  6/  8 1011.0          2/10
GREAT SOUTH BAY  1130            78 82   30/  6/  8   N/A
23 SSW MONTAUK P 1050            75 75              1011.3          3/ 5
15 E BARNEGAT LI 1130               78                N/A           3/ 7
HUDSON CANYON    1050            80 79  230/ 12/ 12 1010.7          3/ 7
KINGS POINT      1136            77 73   50/  4/  5 1011.9
EXECUTION ROCKS  1145            78     360/  2/  4   N/A
CENTRAL LI SOUND NOT AVBL
EASTERN LI SOUND NOT AVBL
ROBBINS REEF     1136                   340/  6/  7 1012.5
$$


>>>>>>>>>>>>>>>>>>>>>>>>>>>> KEY <<<<<<<<<<<<<<<<<<<<<<<<<<<
>                                                          <
>     SKY/WX - Sky Condition/Present Weather               <
>     TMP    - Temperature in Fahrenheit                   <
>     DP     - Dew Point in Fahrenheit                     <
>     RH     - Relative Humidity in Percent                <
>     WIND   - Direction (from) and Speed in MPH           <
>     PRES   - Mean Sea Level Pressure (inches of Hg)      <
>     WCI    - Wind Chill Index                            <
>     VSB    - VISIBILITY IN MILES                         <
>     HX     - HEAT INDEX                                  <
>     TC     - TEMPERATURE IN CELSIUS                      <
>     VRB    - VARIABLE WIND DIRECTION                     <
>                                                          <
>>>>>>>>>>>>>>>>>>>>>>>>>>>> KEY <<<<<<<<<<<<<<<<<<<<<<<<<<<




USA.gov is the U.S. government's official web portal to all federal, state and local government web resources and services.